GW0525 Weather Reports


Display with metric or nautical units.
time (UTC)temp
F
wind
direction
speed
MPH
gust
MPH
rain 1hr
in
rain 24hr
in
rain mn
in
humidity
%
barometer
mb
20260504034614 62 355 35.0 44.0 0.00 0.00 0.00 34 1003.6
20260504033101 62 322 13.0 19.0 0.00 0.00 0.00 35 1003.2
20260504031559 62 316 13.0 18.0 0.00 0.00 0.00 35 1003.2
20260504030058 63 329 13.0 28.0 0.00 0.00 0.00 34 1003.1
20260504024601 63 323 12.0 20.0 0.00 0.00 0.00 33 1003.0
20260504023100 65 331 14.0 22.0 0.00 0.00 0.00 32 1002.9
20260504021559 66 323 18.0 26.0 0.00 0.00 0.00 30 1002.9
20260504020100 67 316 16.0 24.0 0.00 0.00 0.00 25 1002.8
20260504014619 69 294 20.0 28.0 0.00 0.00 0.00 22 1002.7
20260504013104 69 307 17.0 30.0 0.00 0.00 0.00 23 1002.8
20260504011605 70 292 20.0 31.0 0.00 0.00 0.00 22 1002.8
20260504010101 70 321 19.0 30.0 0.00 0.00 0.00 21 1002.9
20260504004559 70 304 19.0 27.0 0.00 0.00 0.00 26 1003.0
20260504003101 70 298 11.0 21.0 0.00 0.00 0.00 26 1003.1
20260504001623 71 292 19.0 30.0 0.00 0.00 0.00 25 1003.5
20260504000059 72 289 20.0 33.0 0.00 0.00 0.00 24 1003.5
20260503234600 72 273 20.0 28.0 0.00 0.00 0.00 24 1003.7
20260503233102 72 284 20.0 34.0 0.00 0.00 0.00 23 1003.9
20260503231600 72 286 21.0 31.0 0.00 0.00 0.00 21 1004.3
20260503230106 71 291 19.0 30.0 0.00 0.00 0.00 21 1004.5
20260503224600 72 286 18.0 32.0 0.00 0.00 0.00 21 1004.8
20260503223100 71 306 21.0 32.0 0.00 0.00 0.00 20 1005.3
20260503221559 72 287 21.0 30.0 0.00 0.00 0.00 20 1005.5
20260503220105 71 300 21.0 31.0 0.00 0.00 0.00 19 1005.6
20260503214559 71 275 24.0 30.0 0.00 0.00 0.00 20 1005.7
20260503213114 72 298 21.0 31.0 0.00 0.00 0.00 21 1005.8
20260503211600 71 291 19.0 32.0 0.00 0.00 0.00 22 1006.1
20260503210105 71 290 22.0 31.0 0.00 0.00 0.00 25 1006.3
20260503204559 71 288 16.0 33.0 0.00 0.00 0.00 25 1006.4
20260503203104 72 265 24.0 33.0 0.00 0.00 0.00 24 1006.6
20260503201601 71 244 24.0 34.0 0.00 0.00 0.00 26 1006.9
20260503200104 71 277 22.0 31.0 0.00 0.00 0.00 27 1007.3
20260503194604 70 251 18.0 32.0 0.00 0.00 0.00 28 1007.5
20260503193112 71 246 19.0 31.0 0.00 0.00 0.00 29 1007.8
20260503191609 70 253 24.0 34.0 0.00 0.00 0.00 30 1008.1
20260503190107 69 257 18.0 31.0 0.00 0.00 0.00 29 1008.4
20260503184611 69 289 21.0 30.0 0.00 0.00 0.00 31 1008.8
20260503183111 68 267 20.0 31.0 0.00 0.00 0.00 30 1009.3
20260503181610 68 261 18.0 30.0 0.00 0.00 0.00 31 1009.5
20260503180105 67 257 22.0 34.0 0.00 0.00 0.00 32 1009.7
20260503174600 67 236 21.0 32.0 0.00 0.00 0.00 32 1010.2
20260503173106 67 271 18.0 29.0 0.00 0.00 0.00 32 1010.6
20260503171601 67 290 20.0 29.0 0.00 0.00 0.00 32 1011.1
20260503090108 47 253 3.0 5.0 0.00 0.00 0.00 47 1014.5
20260503081630 49 246 5.0 7.0 0.00 0.00 0.00 44 1014.6
20260503080117 47 250 4.0 5.0 0.00 0.00 0.00 47 1014.7
20260503071601 48 240 4.0 5.0 0.00 0.00 0.00 46 1014.9
20260503070106 49 232 3.0 4.0 0.00 0.00 0.00 44 1015.0
20260503060104 50 0 0.0 0.0 0.00 0.00 0.00 43 1015.1
20260503054605 50 0 0.0 0.0 0.00 0.00 0.00 43 1015.0
20260503053101 50 0 0.0 0.0 0.00 0.00 0.00 44 1015.1
20260503051558 49 0 0.0 0.0 0.00 0.00 0.00 44 1015.0
20260503050100 49 0 0.0 0.0 0.00 0.00 0.00 44 1015.2
20260503044611 49 0 0.0 0.0 0.00 0.00 0.00 45 1015.2
20260503043111 49 0 0.0 0.0 0.00 0.00 0.00 45 1015.2
20260503041558 50 0 2.0 6.0 0.00 0.00 0.00 43 1015.3